Location: Kerb�bon
(47.7970°N, 3.3487°W)
Time: 12:02:06
(UTC+00:00)

Spot 4 - Pass Details

Date: 12 May 2021
Orbit: 703 x 724 km, 98.3° (Epoch: 18 June)

Event Time Altitude Azimuth Distance (km) Brightness Sun altitude
Exits shadow 22:42:01 39° 114° (ESE) 1,090 4.4 -21.0°
Maximum altitude 22:43:20 49° 69° (ENE) 931 4.4 -21.0°
Drops below altitude 10° 22:48:01 10° 356° (N) 2,222 7.4 -21.3°
Sets 22:50:21 0° 351° (N) 3,145 8.6 -21.5°
